sat.trackr.live / text

‹ back to catalog

2025-180A

NORAD 65259 · 2025-180A

PAYLOAD ACTIVE UNKNOWN

§ Identity

Operator
Country
TBD
Launch date
2025-08-19
Launch site
JSC
Launch vehicle
Mass (kg)
RCS (m²)

External: N2YO · Heavens-Above · Gunter

§ Orbital elements

Epoch: 2026-09-20T18:56:45.413664Z

Period
94.41 min
Inclination
97.5302°
Eccentricity
0.0011095
Mean motion
15.25328262 rev/d
Perigee alt
482.2 km
Apogee alt
497.4 km
Semi-major
6,867.9 km
B*
4.1642e-4
RAAN
32.9892°
Arg perigee
346.0393°
Mean anomaly
14.0536°
Rev number
6,035

§ Raw data

2025-180A1 65259U 25180A   26263.78941451  .00010442  00000+0  41642-3 0  99912 65259  97.5302  32.9892 0011095 346.0393  14.0536 15.25328262 60351

JSON: /api/v1/satellites/65259 · /tle

For live sub-satellite position, see the globe view (requires WebGL).

§ Visibility from observer

Set your observer location to see the next 7 days of passes ≥ 10°. The values pass through the URL so the page stays shareable.

No JS? Fill the form by hand. The geolocation button needs JavaScript.

§ Radio — SatNOGS DB

ModeDescriptionDownlinkUplink
FM Telemetry 400.750 MHz

1 transmitter · refreshed weekly from db.satnogs.org